EW3309 Weather Reports


Display with metric or nautical units.
time (UTC)temp
F
wind
direction
speed
MPH
gust
MPH
rain 1hr
in
rain 24hr
in
rain mn
in
humidity
%
barometer
mb
20260510211554 81 236 0.0 0.0 0.00 0.00 0.00 50 1011.7
20260510210052 81 216 0.0 0.0 0.00 0.00 0.00 51 1011.9
20260510204549 81 229 0.0 0.0 0.00 0.00 0.00 51 1011.9
20260510203046 81 244 0.0 0.0 0.00 0.00 0.00 52 1011.9
20260510201553 81 212 0.0 0.0 0.00 0.00 0.00 52 1011.9
20260510200044 81 227 0.0 0.0 0.00 0.00 0.00 52 1011.9
20260510194544 80 234 0.0 0.0 0.00 0.00 0.00 53 1011.8
20260510193043 81 219 0.0 0.0 0.00 0.00 0.00 51 1011.8
20260510191539 82 254 0.0 0.0 0.00 0.00 0.00 49 1011.7
20260510190049 82 232 0.0 0.0 0.00 0.00 0.00 47 1011.6
20260510184530 81 213 0.0 0.0 0.00 0.00 0.00 50 1011.5
20260510183026 79 186 0.0 0.0 0.00 0.00 0.00 52 1011.6
20260510181523 78 206 0.0 0.0 0.00 0.00 0.00 55 1011.8
20260510180021 76 202 0.0 0.0 0.00 0.00 0.00 59 1011.8
20260510174514 74 178 0.0 0.0 0.00 0.00 0.00 63 1011.9
20260510173009 72 189 0.0 0.0 0.00 0.00 0.00 68 1012.0
20260510171508 69 206 0.0 0.0 0.00 0.00 0.00 72 1012.0
20260510170002 67 214 0.0 0.0 0.00 0.00 0.00 76 1012.0
20260510164610 66 222 0.0 0.0 0.00 0.00 0.00 79 1011.9
20260510163137 64 228 0.0 0.0 0.00 0.00 0.00 82 1012.0
20260510161549 63 268 0.0 0.0 0.00 0.00 0.00 86 1011.8
20260510160048 61 157 0.0 0.0 0.00 0.00 0.00 89 1011.8
20260510154540 60 50 0.0 0.0 0.00 0.00 0.00 89 1011.7
20260510153053 60 174 0.0 0.0 0.00 0.00 0.00 90 1011.8
20260510151535 59 217 0.0 0.0 0.00 0.00 0.00 91 1011.8
20260510150037 59 216 0.0 0.0 0.00 0.00 0.00 91 1011.9
20260510144530 58 296 0.0 0.0 0.00 0.00 0.00 91 1011.8
20260510143033 58 296 0.0 0.0 0.00 0.00 0.00 91 1011.6
20260510141523 58 296 0.0 0.0 0.00 0.00 0.00 91 1011.5
20260510140018 58 292 0.0 0.0 0.00 0.00 0.00 91 1011.4
20260510134516 58 22 0.0 0.0 0.00 0.00 0.00 91 1011.3
20260510133013 58 17 0.0 0.0 0.00 0.00 0.00 91 1011.3
20260510131522 58 168 0.0 0.0 0.00 0.00 0.00 91 1011.1
20260510130011 58 302 0.0 0.0 0.00 0.00 0.00 91 1011.0
20260510124514 58 301 0.0 0.0 0.00 0.00 0.00 91 1011.0
20260510123007 58 300 0.0 0.0 0.00 0.00 0.00 90 1011.0
20260510121515 58 301 0.0 0.0 0.00 0.00 0.00 90 1011.0
20260510120009 58 355 0.0 0.0 0.00 0.00 0.00 90 1011.0
20260510114507 58 30 0.0 0.0 0.00 0.00 0.00 90 1010.9
20260510113005 58 31 0.0 0.0 0.00 0.00 0.00 89 1010.9
20260510111506 58 327 0.0 0.0 0.00 0.00 0.00 89 1010.9
20260510110002 58 327 0.0 0.0 0.00 0.00 0.00 89 1011.1
20260510104501 59 326 0.0 0.0 0.00 0.00 0.00 89 1011.0
20260510103104 59 326 0.0 0.0 0.00 0.00 0.00 89 1011.1
20260510101559 59 324 0.0 0.0 0.00 0.00 0.00 89 1011.1
20260510100116 59 322 0.0 0.0 0.00 0.00 0.00 89 1011.1
20260510094606 59 319 0.0 0.0 0.00 0.00 0.00 89 1011.2
20260510093100 59 319 0.0 0.0 0.00 0.00 0.00 89 1011.2
20260510091555 59 319 0.0 0.0 0.00 0.00 0.00 89 1011.2
20260510090101 59 319 0.0 0.0 0.00 0.00 0.00 88 1011.3
20260510084610 59 319 0.0 0.0 0.00 0.00 0.00 88 1011.4
20260510083051 59 319 0.0 0.0 0.00 0.00 0.00 88 1011.5
20260510081555 59 319 0.0 0.0 0.00 0.00 0.00 88 1011.5
20260510080049 59 319 0.0 0.0 0.00 0.00 0.00 88 1011.6
20260510074545 59 319 0.0 0.0 0.00 0.00 0.00 88 1011.7
20260510073039 59 319 0.0 0.0 0.00 0.00 0.00 88 1011.8
20260510071543 59 318 0.0 0.0 0.00 0.00 0.00 88 1011.9
20260510070044 59 318 0.0 0.0 0.00 0.00 0.00 88 1011.9
20260510064537 58 318 0.0 0.0 0.00 0.00 0.00 87 1012.0
20260510063036 58 318 0.0 0.0 0.00 0.00 0.00 87 1012.1
20260510061533 58 318 0.0 0.0 0.00 0.00 0.00 86 1012.1
20260510060032 59 318 0.0 0.0 0.00 0.00 0.00 85 1012.2
20260510054532 59 318 0.0 0.0 0.00 0.00 0.00 85 1012.1
20260510053033 59 318 0.0 0.0 0.00 0.00 0.00 84 1012.1
20260510051530 60 318 0.0 0.0 0.00 0.00 0.00 84 1012.0
20260510050029 60 318 0.0 0.0 0.00 0.00 0.00 83 1012.1
20260510044533 61 318 0.0 0.0 0.00 0.00 0.00 83 1012.0
20260510043029 61 287 0.0 0.0 0.00 0.00 0.00 82 1011.8
20260510041528 62 288 0.0 0.0 0.00 0.00 0.00 81 1011.7
20260510040028 62 294 0.0 0.0 0.00 0.00 0.00 79 1011.6
20260510034529 63 293 0.0 0.0 0.00 0.00 0.00 78 1011.3
20260510033026 64 264 0.0 0.0 0.00 0.00 0.00 76 1011.1
20260510031526 64 261 0.0 0.0 0.00 0.00 0.00 75 1010.8
20260510030025 65 258 0.0 0.0 0.00 0.00 0.00 74 1010.6
20260510024527 66 252 0.0 0.0 0.00 0.00 0.00 72 1010.6
20260510023024 67 248 0.0 0.0 0.00 0.00 0.00 70 1010.4
20260510021523 69 270 0.0 0.0 0.00 0.00 0.00 67 1010.5
20260510020023 71 270 0.0 0.0 0.00 0.00 0.00 65 1010.3
20260510014523 72 250 0.0 0.0 0.00 0.00 0.00 63 1010.3
20260510013023 74 225 0.0 0.0 0.00 0.00 0.00 60 1010.2
20260510011535 76 270 0.0 0.0 0.00 0.00 0.00 56 1010.2
20260510010021 77 238 0.0 0.0 0.00 0.00 0.00 54 1010.1
20260510004520 78 252 0.0 0.0 0.00 0.00 0.00 53 1010.0
20260510003023 79 227 0.0 0.0 0.00 0.00 0.00 52 1010.0
20260510001520 80 256 0.0 0.0 0.00 0.00 0.00 50 1009.9
20260510000022 80 201 0.0 0.0 0.00 0.00 0.00 49 1009.7
20260509234516 80 209 0.0 0.0 0.00 0.00 0.00 48 1009.8
20260509233015 80 261 0.0 0.0 0.00 0.00 0.00 49 1009.9
20260509231513 80 244 0.0 0.0 0.00 0.00 0.00 47 1010.0
20260509230011 81 244 0.0 0.0 0.00 0.00 0.00 47 1010.1
20260509224510 80 212 0.0 0.0 0.00 0.00 0.00 48 1010.3
20260509223008 81 218 0.0 0.0 0.00 0.00 0.00 48 1010.3
20260509221506 81 213 0.0 0.0 0.00 0.00 0.00 48 1010.5
20260509220004 81 227 0.0 0.0 0.00 0.00 0.00 48 1010.6
20260509214504 81 212 0.0 0.0 0.00 0.00 0.00 48 1010.6
20260509213003 81 271 0.0 0.0 0.00 0.00 0.00 49 1010.7